[[{"header":{"parameterUnit":"m.s-1","parameterCategory":1,"la1":30.2991,"la2":30.254,"lo1":-89.0895,"lo2":-89.0444,"dy":0.0017,"dx":0.0017,"nx":28,"ny":28,"refTime":"2024-07-19T21:00:00:Z","depth":0,"parameterNumber":2,"parameterNumberName":"U-component_of_WINDS"},"data":[0,0,0,0,0,0,0,0,0,0,0,0,0,0,0,0,0,0,0,0,0,0,0,0,0,0,0,0,0,0,0,0,0,0,0,0,0,0,0,0,0,0,0,0,0,0,0,0,0,0,0,0,0,0,0,0,0,0,-0.7484,-0.7484,0,-0.7479,-0.7479,-0.7479,-0.7503,-0.7503,-0.7504,-0.7505,-0.7498,-0.7497,-0.7496,0,0,0,0,0,0,0,0,0,0,0,0,0,-0.7511,-0.751,-0.7484,-0.7484,-0.7484,-0.7479,-0.7479,-0.7479,-0.7502,-0.7503,-0.7504,-0.7505,-0.7498,-0.7497,-0.7496,0,0,0,0,0,0,0,0,0,0,0,0,0,-0.7502,-0.751,-0.7484,-0.7495,-0.7496,-0.7479,-0.7479,-0.7479,-0.7502,-0.7503,-0.7504,-0.7505,-0.7498,-0.7497,-0.7496,-0.7468,0,0,-0.7492,-0.7492,0,0,0,0,0,0,0,0,-0.7503,-0.7501,-0.7493,-0.7494,-0.7495,-0.7493,-0.7487,-0.7475,-0.7502,-0.75,-0.7505,-0.7506,-0.7495,-0.7494,-0.7491,-0.7468,-0.7467,-0.7492,-0.7491,-0.7491,-0.749,0,0,0,0,0,0,0,-0.7503,-0.7501,-0.7482,-0.7493,-0.7494,-0.75,-0.7499,-0.7485,-0.7492,-0.75,-0.7502,-0.7501,-0.7496,-0.7492,-0.7491,-0.7467,-0.7492,-0.7491,-0.749,-0.749,-0.7423,-0.7422,0,0,0,0,0,0,-0.7503,-0.7502,-0.7482,-0.7482,-0.7501,-0.7498,-0.7498,-0.7492,-0.7492,-0.7493,-0.75,-0.7502,-0.7494,-0.7492,-0.7491,-0.7459,-0.7491,-0.749,-0.7489,-0.7424,-0.7422,-0.7421,0,0,0,0,0,0,-0.7503,-0.7501,-0.7482,-0.7492,-0.749,-0.7497,-0.749,-0.7492,-0.7488,-0.7492,-0.7493,-0.7495,-0.7494,-0.7493,-0.7474,-0.7459,-0.7489,-0.7488,-0.7425,-0.7423,-0.7422,-0.7394,0,0,0,0,0,0,-0.7504,-0.7501,-0.749,-0.7492,-0.749,-0.7466,-0.7489,-0.7491,-0.7486,-0.7489,-0.7488,-0.7489,-0.7495,-0.7476,-0.7473,-0.7458,-0.7487,-0.7426,-0.7424,-0.7422,-0.7397,-0.7392,-0.7388,0,0,0,0,0,-0.7505,-0.7482,-0.7489,-0.7487,-0.7477,-0.7465,-0.7463,-0.7472,-0.7485,-0.7474,-0.7477,-0.7489,-0.7462,-0.7474,-0.7471,-0.7455,-0.7427,-0.7425,-0.7423,-0.7399,-0.7393,-0.7388,0,0,0,0,0,0,-0.7476,-0.7482,-0.7491,-0.7468,-0.7466,-0.7469,-0.7455,-0.7466,-0.7459,-0.7462,-0.7472,-0.7472,-0.7452,-0.7452,-0.7465,-0.7429,-0.7447,-0.7443,-0.7429,-0.7424,-0.742,-0.742,-0.7486,0,0,0,0,0,-0.7468,-0.7458,-0.7463,-0.7442,-0.7441,-0.7449,-0.7444,-0.7451,-0.7449,-0.7448,-0.7449,-0.7446,-0.7437,-0.7431,-0.7423,-0.7397,-0.7398,-0.7385,-0.7381,-0.7378,-0.7374,-0.7362,-0.7357,-0.7414,-0.7414,-0.7414,0,0,-0.7449,-0.7451,-0.7444,-0.7437,-0.7436,-0.7426,-0.7448,-0.7435,-0.7427,-0.7446,-0.7428,-0.743,-0.7427,-0.7406,-0.7396,-0.7405,-0.7359,-0.7375,-0.7372,-0.737,-0.7359,-0.7354,-0.7349,-0.7412,-0.7412,-0.7413,0,0,-0.741,-0.7411,-0.7394,-0.7393,-0.7393,-0.7398,-0.7394,-0.7396,-0.7398,-0.7381,-0.7395,-0.7386,-0.737,-0.7368,-0.7365,-0.7328,-0.7338,-0.7325,-0.7302,-0.729,-0.7286,-0.7282,-0.7269,-0.7264,-0.7322,-0.7322,-0.7322,0,-0.7387,-0.7372,-0.7384,-0.7371,-0.7368,-0.7386,-0.7369,-0.7367,-0.7364,-0.7361,-0.7371,-0.7353,-0.7352,-0.7331,-0.7322,-0.7319,-0.7315,-0.7325,-0.7286,-0.7282,-0.7278,-0.7266,-0.7261,-0.7321,-0.7321,-0.7321,-0.7321,0,-0.7344,-0.7333,-0.732,-0.7317,-0.7313,-0.7298,-0.7307,-0.7301,-0.731,-0.7314,-0.7297,-0.7298,-0.7291,-0.7287,-0.7294,-0.7266,-0.7272,-0.7284,-0.7302,-0.7271,-0.726,-0.7255,-0.7318,-0.7319,-0.7319,-0.732,0,0,-0.7284,-0.7291,-0.7285,-0.7285,-0.7287,-0.7279,-0.7265,-0.726,-0.7254,-0.7252,-0.7241,-0.7228,-0.724,-0.7236,-0.7244,-0.7233,-0.7204,-0.7246,-0.7246,-0.7238,-0.7174,-0.7165,-0.7159,-0.7212,-0.7211,-0.721,-0.7175,0,-0.7246,-0.7224,-0.7235,-0.7211,-0.7202,-0.722,-0.7209,-0.7209,-0.7213,-0.7206,-0.721,-0.7201,-0.7217,-0.7215,-0.7206,-0.721,-0.7191,-0.7212,-0.7201,-0.72,-0.72,-0.7153,-0.7143,-0.7109,-0.717,-0.7169,-0.7169,0,-0.7198,-0.7195,-0.7171,-0.7176,-0.7172,-0.7162,-0.7158,-0.7151,-0.7152,-0.7156,-0.7153,-0.7164,-0.7151,-0.717,-0.7152,-0.7166,-0.7163,-0.7164,-0.7163,-0.7161,-0.7182,-0.715,-0.7098,-0.7093,-0.7162,-0.7162,-0.7163,0,-0.7157,-0.7147,-0.7132,-0.7131,-0.7136,-0.7128,-0.713,-0.7132,-0.7128,-0.7125,-0.7123,-0.7118,-0.7115,-0.7111,-0.712,-0.7133,-0.7102,-0.7121,-0.7104,-0.7104,-0.7096,-0.7096,-0.7042,-0.7094,-0.7095,-0.7095,-0.7095,0,-0.7113,-0.7097,-0.7114,-0.7104,-0.7087,-0.7101,-0.7084,-0.7088,-0.7089,-0.7081,-0.7096,-0.7087,-0.7101,-0.7093,-0.7101,-0.7085,-0.7084,-0.7086,-0.7088,-0.7085,-0.7084,-0.7081,-0.7084,-0.7093,-0.7094,-0.7094,-0.7094,0,-0.7064,-0.7074,-0.7059,-0.7066,-0.7067,-0.7055,-0.7061,-0.7052,-0.7059,-0.7048,-0.7046,-0.7055,-0.7048,-0.7057,-0.705,-0.7055,-0.7034,-0.704,-0.7034,-0.7035,-0.7018,-0.7019,-0.696,-0.6953,-0.701,-0.701,-0.7009,0,-0.7034,-0.7023,-0.703,-0.7026,-0.7027,-0.702,-0.7017,-0.703,-0.7027,-0.7028,-0.7019,-0.7013,-0.7009,-0.6996,-0.7002,-0.6997,-0.7002,-0.6982,-0.7001,-0.6999,-0.7002,-0.7002,-0.7001,-0.6978,-0.6977,-0.6976,-0.6976,0,-0.6981,-0.6987,-0.6983,-0.698,-0.6977,-0.6975,-0.6975,-0.6971,-0.6985,-0.698,-0.6973,-0.697,-0.6964,-0.6958,-0.6955,-0.6957,-0.6968,-0.697,-0.6966,-0.6961,-0.6959,-0.696,-0.7023,-0.6971,-0.6972,-0.6972,-0.6972,-0.6972,-0.6941,-0.6932,-0.6936,-0.693,-0.6932,-0.6932,-0.6925,-0.6931,-0.6926,-0.6923,-0.6931,-0.6923,-0.6925,-0.6922,-0.6923,-0.6916,-0.6925,-0.6919,-0.6917,-0.6915,-0.6912,-0.6961,-0.6916,-0.6916,-0.6916,-0.6916,-0.6916,0,-0.6888,-0.6892,-0.6887,-0.6887,-0.6883,-0.6897,-0.6898,-0.6893,-0.6886,-0.6887,-0.6884,-0.6876,-0.6871,-0.6878,-0.6874,-0.6867,-0.6873,-0.6866,-0.6866,-0.6866,-0.6905,-0.6909,-0.6861,-0.6861,-0.6861,-0.6861,-0.6861,-0.6861,-0.686,-0.6846,-0.6853,-0.6841,-0.6845,-0.6837,-0.6837,-0.6837,-0.6838,-0.683,-0.6826,-0.6831,-0.6835,-0.6832,-0.6827,-0.683,-0.6827,-0.6818,-0.6822,-0.6858,-0.6863,-0.6868,-0.6872,-0.6818,-0.6818,-0.6784,-0.6783,-0.6783]},{"header":{"parameterUnit":"m.s-1","parameterCategory":1,"la1":30.2991,"la2":30.254,"lo1":-89.0895,"lo2":-89.0444,"dy":0.0017,"dx":0.0017,"nx":28,"ny":28,"refTime":"2024-07-19T21:00:00:Z","depth":0,"parameterNumber":3,"parameterNumberName":"V-component_of_WINDS"},"data":[0,0,0,0,0,0,0,0,0,0,0,0,0,0,0,0,0,0,0,0,0,0,0,0,0,0,0,0,0,0,0,0,0,0,0,0,0,0,0,0,0,0,0,0,0,0,0,0,0,0,0,0,0,0,0,0,0,0,4.3472,4.3473,0,4.353,4.3531,4.3531,4.3456,4.3453,4.3451,4.3448,4.3505,4.3509,4.3513,0,0,0,0,0,0,0,0,0,0,0,0,0,4.3292,4.3296,4.3472,4.3473,4.3474,4.353,4.3531,4.3532,4.3457,4.3453,4.345,4.3447,4.3504,4.3508,4.3513,0,0,0,0,0,0,0,0,0,0,0,0,0,4.3362,4.3297,4.3472,4.3443,4.3441,4.353,4.3531,4.3532,4.3457,4.3453,4.3449,4.3445,4.3502,4.3508,4.3514,4.3633,0,0,4.3532,4.3535,0,0,0,0,0,0,0,0,4.3359,4.3369,4.3447,4.3445,4.3443,4.3482,4.3488,4.3566,4.3458,4.3451,4.3448,4.3443,4.35,4.3506,4.3526,4.3636,4.3638,4.3533,4.3537,4.3539,4.3541,0,0,0,0,0,0,0,4.3354,4.3366,4.3495,4.3448,4.3446,4.3426,4.3431,4.3502,4.3498,4.3451,4.3446,4.3454,4.3498,4.352,4.3527,4.3639,4.3533,4.3538,4.3542,4.3544,4.3846,4.385,0,0,0,0,0,0,4.3353,4.3363,4.3493,4.3497,4.339,4.3432,4.3438,4.3473,4.3497,4.3496,4.3458,4.345,4.3512,4.352,4.3528,4.3667,4.3539,4.3545,4.3548,4.3842,4.3847,4.3852,0,0,0,0,0,0,4.3349,4.3365,4.3491,4.3428,4.3443,4.344,4.348,4.3477,4.3498,4.3502,4.35,4.3481,4.3509,4.352,4.3607,4.3668,4.3548,4.3553,4.3837,4.3844,4.385,4.3948,0,0,0,0,0,0,4.3344,4.3364,4.3411,4.343,4.3446,4.357,4.3484,4.3481,4.3509,4.3501,4.3523,4.3523,4.3507,4.3598,4.3613,4.3675,4.3558,4.3831,4.384,4.3848,4.3939,4.3957,4.3972,0,0,0,0,0,4.3338,4.3436,4.3414,4.343,4.3504,4.3574,4.3583,4.3563,4.3515,4.356,4.3562,4.3522,4.366,4.3608,4.3624,4.3688,4.3827,4.3837,4.3847,4.3932,4.3953,4.3972,0,0,0,0,0,0,4.3424,4.3438,4.3413,4.352,4.3547,4.3561,4.3618,4.3587,4.3627,4.3617,4.359,4.3596,4.3688,4.3697,4.3639,4.3803,4.3735,4.3749,4.3794,4.3815,4.3831,4.3826,4.3563,0,0,0,0,0,4.3455,4.3511,4.352,4.3614,4.3628,4.3621,4.3651,4.3633,4.3659,4.3669,4.3677,4.3703,4.3751,4.3784,4.3829,4.394,4.3943,4.3992,4.4009,4.4022,4.4034,4.4091,4.4112,4.3884,4.3884,4.3884,0,0,4.352,4.3535,4.3572,4.3632,4.365,4.3707,4.3631,4.3695,4.3737,4.3678,4.3761,4.3768,4.3794,4.3893,4.3938,4.3903,4.4097,4.4035,4.4046,4.405,4.4103,4.4125,4.4144,4.3891,4.389,4.3889,0,0,4.3668,4.3686,4.3765,4.3784,4.3813,4.3807,4.3826,4.3845,4.3847,4.393,4.3887,4.3935,4.402,4.404,4.4061,4.4215,4.4179,4.4231,4.4317,4.4373,4.4391,4.4406,4.4459,4.4479,4.4242,4.4243,4.4243,0,4.3745,4.3831,4.3809,4.3876,4.3902,4.3853,4.3931,4.3951,4.3992,4.4011,4.3972,4.4077,4.4091,4.4193,4.4231,4.425,4.4269,4.4227,4.439,4.4406,4.442,4.447,4.449,4.4249,4.4248,4.4247,4.4247,0,4.3923,4.3983,4.4043,4.4084,4.4118,4.419,4.4178,4.4214,4.4193,4.4191,4.4274,4.429,4.4336,4.4359,4.434,4.4458,4.4436,4.4395,4.4325,4.4448,4.4494,4.4514,4.4257,4.4255,4.4253,4.4252,0,0,4.4126,4.4154,4.4176,4.4193,4.4221,4.4266,4.4335,4.4381,4.4411,4.4441,4.4497,4.457,4.4531,4.4555,4.4537,4.4587,4.4705,4.4539,4.4539,4.4567,4.4833,4.4863,4.4886,4.4682,4.4685,4.4688,4.483,0,4.4272,4.4393,4.4374,4.449,4.4544,4.4497,4.4557,4.4579,4.4579,4.4623,4.4622,4.4673,4.4619,4.4633,4.468,4.4681,4.4758,4.467,4.4731,4.4734,4.4725,4.491,4.4943,4.5076,4.4849,4.4852,4.4854,0,4.4459,4.4496,4.4617,4.4634,4.4655,4.471,4.4749,4.4793,4.4816,4.4812,4.4839,4.4812,4.4879,4.481,4.4901,4.4842,4.4866,4.487,4.4874,4.4878,4.48,4.4917,4.5119,4.5138,4.4883,4.488,4.4878,0,4.4592,4.4672,4.4754,4.4771,4.4793,4.4832,4.4843,4.4862,4.489,4.4925,4.4942,4.4984,4.5006,4.5038,4.5022,4.4974,4.5116,4.5045,4.5112,4.5113,4.5143,4.5141,4.535,4.5162,4.5162,4.5161,4.5161,0,4.4756,4.4832,4.4814,4.4865,4.4947,4.4924,4.5006,4.5011,4.5029,4.5078,4.504,4.5087,4.5064,4.5109,4.5097,4.5172,4.5183,4.5181,4.5176,4.5183,4.5183,4.5197,4.5187,4.5167,4.5165,4.5164,4.5164,0,4.4919,4.4911,4.4997,4.501,4.5015,4.5075,4.5086,4.5133,4.5129,4.5192,4.5205,4.5199,4.525,4.5237,4.5293,4.5284,4.5379,4.5364,4.5372,4.5367,4.5434,4.5427,4.5658,4.5686,4.5482,4.5484,4.5485,0,4.5023,4.508,4.51,4.513,4.5144,4.5194,4.5222,4.5202,4.5233,4.5263,4.5305,4.5352,4.5389,4.5471,4.5471,4.5513,4.5497,4.5575,4.5503,4.5507,4.5496,4.5492,4.5496,4.5588,4.5591,4.5593,4.5594,0,4.5209,4.5202,4.5244,4.5285,4.532,4.5351,4.5379,4.5406,4.5387,4.5423,4.5474,4.5503,4.5559,4.5605,4.5643,4.5653,4.562,4.5617,4.5634,4.5641,4.5642,4.5641,4.5409,4.5612,4.561,4.5609,4.5608,4.5607,4.5344,4.5392,4.5412,4.5461,4.5479,4.5505,4.5549,4.555,4.5593,4.5637,4.5622,4.5681,4.57,4.5748,4.5762,4.5806,4.5777,4.5802,4.5809,4.5815,4.5822,4.5637,4.5813,4.5813,4.5812,4.5812,4.5812,0,4.5526,4.5537,4.5581,4.5621,4.5658,4.5625,4.5653,4.5686,4.5738,4.576,4.5797,4.5854,4.5899,4.5903,4.5944,4.5979,4.5964,4.599,4.5986,4.5989,4.5847,4.5827,4.6001,4.6001,4.6,4.6,4.6,4.6,4.5625,4.5703,4.5698,4.5783,4.5793,4.585,4.5869,4.5892,4.5909,4.5976,4.6013,4.6015,4.6028,4.607,4.6109,4.6109,4.6125,4.6156,4.615,4.6018,4.5999,4.5981,4.5962,4.616,4.6161,4.6287,4.6288,4.6289]}]]